Temp
19 19 18 18 18 18 18 18 18 18 18 18 18 18 18 18 18 18 18 17 17 16 16 16 16 15 15 15 15 15 15 15 15 15 15 15 15 15 15 15 15 15 15 15 15 15 15 15 15 15 16 16 16 16 16 16 16 16 16 15 15 14 14 15 15 15 15 16 16 16 16 17 17 18 18 18 18 17 17 17 17 17 17 17 18
19 19 19 18 18 18 18 18 19 18 19 19 19 18 18 18 18 18 17 17 16 16 16 16 15 15 15 15 15 15 15 15 14 14 14 14 14 14 15 15 15 15 15 15 15 15 15 15 15 15 15 15 15 16 16 16 16 16 16 16 15 15 15 15 15 15 15 15 16 16 16 17 17 17 18 18 18 17 17 17 17 16 17 17 18
19 19 19 19 18 18 19 19 19 19 19 19 18 18 18 18 17 17 17 16 16 16 16 15 15 15 15 15 14 14 14 14 14 14 14 14 14 14 14 14 14 14 14 15 15 15 15 15 15 15 15 15 15 16 16 16 16 16 16 16 16 15 15 15 15 15 15 15 15 16 16 16 17 17 17 17 17 17 17 17 17 16 16 17 17
19 19 19 19 19 19 19 19 19 19 19 19 18 18 18 17 17 16 16 16 16 15 15 15 15 14 14 14 14 14 14 14 14 14 14 14 14 14 14 14 14 14 14 14 14 14 14 14 15 15 15 15 15 15 15 16 16 16 16 16 16 16 16 15 15 15 15 15 15 16 16 16 17 17 17 17 16 16 16 16 16 16 16 16 16
19 19 19 19 19 19 19 19 19 19 18 18 18 17 17 17 16 16 16 16 15 15 15 15 14 14 14 14 14 14 14 14 13 13 13 13 13 13 13 13 14 14 14 14 14 14 14 14 14 14 14 14 15 15 15 15 15 16 16 16 16 16 16 16 15 15 15 15 15 15 16 16 16 17 17 16 16 16 16 16 16 16 16 16 16
19 19 19 19 19 19 19 19 18 18 18 17 17 17 16 16 16 16 15 15 15 15 14 14 14 14 14 14 14 14 14 13 13 13 13 13 13 13 13 13 13 13 13 13 13 13 14 14 14 14 14 14 14 14 15 15 15 15 16 16 16 16 16 15 15 15 15 15 15 15 15 16 16 16 17 16 16 16 16 16 16 16 16 16 16
19 19 19 19 19 18 18 18 17 17 17 17 16 16 16 15 15 15 15 15 15 14 14 14 14 14 14 14 14 14 14 14 14 14 14 14 13 13 13 13 13 13 13 13 13 13 13 13 14 14 14 14 14 14 14 14 14 14 15 16 16 16 15 15 15 15 15 15 15 15 15 15 15 16 16 16 15 16 16 16 15 15 16 16 16
18 18 18 18 18 17 17 17 17 16 16 16 16 15 15 15 15 15 15 15 14 14 14 14 14 14 14 14 14 14 14 14 14 14 13 13 13 13 13 13 13 13 13 13 13 13 13 13 13 13 13 13 13 14 14 14 14 14 14 15 16 16 15 15 15 15 15 14 14 15 15 15 15 15 16 16 15 16 16 16 15 15 15 15 16
17 17 17 17 17 16 16 16 16 16 15 15 15 15 15 15 15 14 14 14 14 14 14 14 14 14 14 14 14 14 14 13 13 13 13 13 13 13 13 13 13 13 13 13 13 13 13 13 13 13 13 13 13 13 13 14 14 13 14 14 15 15 15 15 15 15 15 14 14 14 14 15 15 15 15 15 16 16 16 16 15 14 14 14 14
17 16 16 16 16 15 15 15 15 15 15 14 14 14 14 14 14 14 14 14 14 14 14 14 14 14 14 14 13 13 13 13 13 13 13 13 13 13 13 13 13 13 13 13 13 13 13 13 13 13 13 13 13 13 13 13 13 13 13 14 14 14 14 15 15 15 14 14 14 14 14 14 15 15 15 15 16 16 15 15 14 14 14 13 13
15 15 15 15 15 15 14 14 14 14 14 13 13 13 13 13 13 13 13 13 13 12 12 13 13 13 13 13 13 13 13 13 13 13 13 13 13 13 12 12 12 12 12 12 12 12 12 12 13 13 13 13 13 13 13 13 13 13 13 13 14 14 14 14 14 15 14 14 14 14 14 14 15 15 15 15 15 15 15 15 14 13 13 13 12
14 14 14 13 13 13 13 13 13 13 13 13 12 12 12 12 12 11 11 11 11 11 11 11 11 12 12 12 13 13 13 13 13 12 12 12 12 12 12 12 12 12 12 12 12 12 12 12 12 12 12 12 12 13 13 13 13 13 13 13 13 14 14 13 14 15 15 14 14 14 14 14 15 15 15 15 15 15 15 14 14 13 13 13 13
13 13 13 12 12 12 12 12 12 12 12 11 11 11 11 11 11 10 10 10 10 10 10 10 10 11 11 11 11 12 12 12 12 12 12 12 12 12 12 12 12 12 12 11 11 11 11 11 11 11 11 12 12 12 12 12 12 13 13 13 13 13 14 14 14 14 15 15 14 14 15 14 14 15 15 15 15 15 15 14 14 14 13 14 14
11 12 12 12 12 12 11 11 11 10 10 10 10 10 10 10 9 9 9 9 9 9 9 9 9 10 10 10 10 11 11 11 11 11 11 12 12 12 12 12 11 11 11 11 11 11 11 11 11 11 11 11 12 12 12 12 12 12 13 13 13 13 13 14 14 14 15 15 15 15 15 15 14 15 15 15 15 15 15 14 14 14 14 14 14
11 11 11 11 11 11 10 10 10 10 9 9 9 9 9 9 9 9 9 8 8 8 8 8 8 9 9 9 9 10 10 10 10 11 11 11 11 11 11 11 10 10 10 10 10 10 10 10 10 11 11 11 11 11 12 12 12 12 12 12 12 12 13 13 14 14 14 15 15 15 15 15 15 14 15 15 15 16 15 15 15 15 14 14 14
11 11 10 10 10 10 10 9 9 9 9 9 9 8 8 8 8 8 8 8 8 8 8 8 8 8 8 8 9 9 9 10 10 10 10 10 10 10 10 10 9 9 9 9 9 10 10 10 10 10 10 11 11 11 11 11 12 12 12 12 12 12 12 13 13 13 14 14 14 15 15 15 15 15 14 14 15 16 16 15 15 14 14 13 13
11 10 10 10 10 10 9 9 9 9 9 8 8 8 8 8 8 8 8 8 8 7 7 7 7 7 8 8 8 8 9 9 9 9 9 9 9 9 9 9 9 8 9 9 9 9 9 9 9 9 10 10 10 11 11 11 11 11 11 11 12 12 12 12 13 13 13 14 14 14 15 15 15 15 15 14 14 15 16 15 14 13 13 12 12
10 10 10 9 9 9 9 9 9 8 8 8 8 8 8 8 8 8 7 7 7 7 7 7 7 7 7 8 8 8 8 9 9 9 9 9 9 9 8 8 8 8 8 8 8 8 9 9 9 9 9 10 10 10 10 11 11 11 11 11 11 11 11 12 12 13 13 13 13 14 14 15 15 15 15 15 14 14 15 15 14 13 13 13 12
10 9 9 9 9 9 9 8 8 8 8 8 8 8 7 7 7 7 7 7 7 7 7 7 7 7 7 8 8 8 8 8 8 8 8 8 8 8 7 7 7 7 8 8 8 8 8 8 9 9 9 10 10 10 10 10 10 11 11 11 11 11 11 12 12 12 13 13 13 14 14 14 14 15 15 15 15 14 14 15 14 13 13 13 12
9 9 9 9 9 9 8 8 8 8 8 8 7 7 7 7 7 7 7 7 7 7 7 7 7 7 7 8 8 8 8 8 7 7 7 7 7 7 7 7 7 7 7 7 7 8 8 8 8 9 9 9 9 10 10 10 10 10 10 10 10 11 11 11 12 12 12 13 13 13 14 14 14 15 15 15 15 14 14 15 15 14 14 14 13
9 9 9 8 8 8 8 8 8 7 7 7 7 7 7 7 7 7 7 7 7 7 7 7 7 7 7 8 8 7 7 7 7 7 7 6 6 6 6 6 6 6 6 6 7 7 7 8 8 8 9 9 9 9 9 10 10 10 10 10 11 11 11 11 11 12 12 12 13 13 13 14 14 14 15 15 15 14 14 15 15 14 14 14 13
9 9 8 8 8 8 8 8 7 7 7 7 7 7 6 6 6 6 6 6 7 7 7 7 7 7 7 7 7 6 6 6 6 6 6 6 6 5 5 5 5 5 5 5 5 6 6 7 7 8 8 8 9 9 9 9 10 10 10 10 10 11 11 11 11 12 12 12 12 13 13 13 14 14 14 14 15 14 13 14 15 14 14 15 15
9 8 8 8 8 8 8 7 7 7 6 6 6 6 6 6 6 6 6 6 6 7 7 7 7 6 6 6 6 6 6 6 5 5 5 5 5 5 4 4 4 4 4 4 4 5 5 5 6 6 7 7 8 8 9 9 9 9 9 10 10 11 11 11 11 11 12 12 12 12 13 13 14 14 14 14 15 14 13 14 14 14 14 14 15
9 8 8 8 8 8 7 7 7 6 6 6 6 6 6 6 6 6 6 6 6 6 6 6 6 6 5 5 5 5 5 5 4 4 4 4 4 4 3 3 3 3 3 3 3 4 4 4 4 5 5 6 6 7 8 8 9 9 9 9 10 10 10 11 11 11 11 11 11 11 12 13 13 14 14 14 15 14 14 14 14 14 14 14 15
8 8 8 8 8 7 7 6 6 6 6 6 6 6 6 6 6 6 6 6 6 6 6 6 5 5 5 5 4 4 4 4 3 3 3 3 3 3 3 3 3 2 2 2 3 3 3 3 3 4 4 4 5 5 6 7 8 9 9 9 9 9 9 10 10 11 11 11 11 11 12 12 13 13 14 14 15 14 14 14 14 14 14 14 14
8 8 8 7 7 7 6 6 6 6 6 6 5 5 6 6 6 6 6 6 6 5 5 5 5 4 4 3 3 3 3 2 2 2 2 2 2 2 2 2 2 2 2 2 2 2 2 2 2 3 3 3 4 4 5 6 7 8 8 9 9 9 9 10 10 10 10 11 11 11 12 12 13 13 14 14 14 13 13 14 14 14 14 14 14
8 7 7 7 6 6 6 5 5 5 5 5 5 5 5 6 6 6 6 5 5 5 4 4 3 3 2 2 2 2 2 2 2 2 1 1 1 1 1 2 2 2 2 2 2 2 2 2 2 2 3 3 3 3 4 5 6 7 8 8 8 8 9 9 10 10 10 11 11 11 12 12 13 13 14 14 13 13 14 14 14 14 14 14 14
7 7 7 6 6 6 5 5 5 5 5 5 5 5 5 6 6 6 5 5 4 4 4 3 2 2 1 1 1 1 1 1 1 1 1 1 1 1 1 1 1 1 1 2 2 2 2 3 3 2 2 3 3 3 3 4 6 7 7 8 8 8 8 9 10 10 10 11 11 11 11 12 13 13 13 13 13 13 13 14 14 14 14 14 14
7 6 6 6 5 5 5 5 5 5 5 5 5 5 5 6 5 5 5 4 4 3 3 2 1 1 1 1 1 1 1 1 1 1 0 0 0 0 0 0 0 1 1 1 1 2 2 2 3 3 3 3 3 3 3 4 5 6 7 7 8 8 8 9 10 10 10 11 11 11 11 12 12 13 13 13 13 13 13 14 14 14 14 14 14
6 5 5 5 5 5 4 4 4 4 5 5 5 5 5 5 5 4 4 4 3 3 2 1 1 1 1 0 0 0 0 0 0 0 -0 -0 -0 -0 0 0 0 0 0 1 1 1 1 2 3 3 3 3 3 3 4 5 6 6 7 7 8 8 8 9 9 10 10 10 10 11 11 11 12 12 12 12 13 13 13 14 14 14 14 14 14
5 5 4 4 4 4 4 4 4 4 5 5 5 5 4 4 4 4 3 3 2 2 2 1 1 1 0 0 0 0 0 -0 -0 -0 -0 -0 -0 -0 -0 0 1 1 1 1 1 1 1 1 2 3 3 4 4 4 4 5 6 7 7 7 8 8 8 8 9 10 10 10 10 11 11 11 11 12 12 12 12 13 13 14 14 14 14 14 14
4 4 4 4 4 4 4 4 4 4 4 4 4 4 4 3 3 3 2 2 2 2 1 1 1 1 0 0 0 -0 -0 -0 -0 -0 -0 -0 -0 0 1 2 2 3 2 2 1 1 1 1 2 3 3 4 4 4 5 6 7 7 7 7 7 8 8 8 9 9 10 10 10 10 11 11 11 12 12 12 12 12 13 14 14 14 14 14 14
4 4 4 4 4 4 4 4 4 4 4 4 4 3 3 3 2 2 2 2 2 1 1 1 1 0 0 0 -0 -0 -0 -0 -0 -0 -0 -0 0 1 2 3 4 3 2 2 2 1 1 1 1 2 3 4 5 5 6 6 7 7 7 7 7 7 8 9 9 9 10 10 10 10 11 11 11 11 12 12 12 12 13 13 13 13 14 14 14
4 4 4 4 4 4 4 4 4 4 4 4 3 3 2 2 2 1 1 1 1 1 1 1 1 0 0 0 -0 -0 -0 -0 -0 -0 -0 -0 0 1 3 4 4 3 2 2 2 2 1 1 1 2 3 4 5 5 6 7 7 7 7 8 8 8 8 8 9 9 9 10 10 10 11 11 11 11 11 11 12 12 12 13 13 13 14 14 14
4 4 4 4 4 4 4 3 3 3 3 3 2 2 2 1 1 1 1 1 0 0 0 0 0 0 0 -0 -0 -1 -0 -0 -0 -0 -0 -0 0 2 3 4 4 3 2 2 2 1 1 1 2 2 3 5 5 6 6 7 7 7 8 8 8 8 8 8 9 9 9 10 10 10 11 11 11 11 11 11 11 12 12 12 13 13 13 14 14
4 4 4 4 4 3 3 3 3 3 2 2 2 1 1 1 1 1 1 0 0 -0 -0 -0 -0 -0 -0 -0 -0 -1 -0 -0 -0 -0 -0 -0 0 1 2 2 3 4 3 3 2 2 2 2 3 3 4 5 5 6 6 7 7 8 8 8 8 8 8 8 9 9 9 10 10 10 10 10 11 11 11 11 11 12 12 12 13 13 13 14 14
4 4 3 3 3 3 3 3 2 2 2 2 1 1 1 1 1 0 0 0 -0 -0 -0 -0 -0 -0 -0 -0 -1 -1 -1 -0 -0 -0 -0 -0 0 1 0 1 2 3 4 4 4 3 3 3 4 4 5 5 6 6 7 7 7 8 8 9 9 9 9 9 9 10 10 10 10 10 10 10 11 11 11 11 11 11 12 12 13 13 13 14 14
3 3 3 3 3 3 2 2 2 2 2 2 1 1 1 1 0 0 -0 -0 -0 -0 -1 -1 -1 -1 -1 -1 -1 -1 -1 -1 -0 -0 -0 -0 -0 -0 -0 0 1 2 3 4 4 4 4 4 4 5 5 6 6 7 7 7 8 8 9 9 9 9 10 10 11 11 10 10 10 10 10 10 11 11 11 11 11 11 12 12 12 13 13 13 13
3 3 3 3 3 2 2 2 2 2 2 2 1 1 1 0 -0 -0 -0 -1 -1 -1 -1 -1 -1 -1 -1 -1 -1 -1 -1 -1 -1 -1 -1 -1 -1 -1 -1 -0 0 1 2 3 4 5 5 5 5 5 6 6 6 7 7 8 8 9 9 9 9 10 10 10 10 10 10 10 10 10 10 11 11 11 11 11 11 11 12 12 12 13 13 13 13
3 3 3 3 3 2 2 2 2 2 2 2 1 1 1 0 -0 -1 -1 -1 -1 -1 -1 -1 -1 -1 -1 -1 -1 -1 -1 -1 -1 -1 -1 -1 -1 -1 -1 -1 -0 0 1 2 3 4 5 5 5 5 6 7 7 7 8 8 9 9 9 10 10 10 10 11 11 10 10 10 10 10 10 10 11 11 11 11 11 12 12 12 12 13 13 13 13
3 3 3 3 3 3 2 2 2 2 2 2 1 1 0 0 -0 -1 -1 -1 -1 -1 -1 -1 -1 -1 -1 -1 -1 -1 -1 -1 -1 -1 -1 -1 -1 -1 -1 -1 -0 -0 1 1 2 3 4 5 5 6 6 7 7 8 8 9 9 9 9 10 10 11 11 11 11 11 11 11 11 11 10 11 11 11 11 11 11 12 12 12 13 13 13 13 13
3 3 3 3 3 3 3 3 3 3 2 2 1 1 1 0 -0 -1 -1 -1 -1 -1 -1 -1 -2 -2 -1 -1 -1 -1 -1 -1 -2 -1 -1 -1 -1 -1 -1 -1 -0 -0 0 1 2 2 3 4 5 5 6 6 7 8 8 9 9 9 10 10 11 11 11 11 11 11 11 11 11 11 11 11 11 11 11 11 12 12 12 12 13 13 13 13 13
3 3 3 3 3 3 3 3 3 3 3 2 2 1 1 1 -0 -1 -1 -1 -2 -2 -2 -2 -2 -2 -2 -2 -2 -1 -1 -2 -2 -2 -1 -1 -1 -1 -1 -1 -1 -0 0 1 1 2 2 3 4 4 4 5 7 8 8 9 9 10 10 11 11 11 11 11 11 11 11 11 11 11 11 11 11 11 11 11 12 12 12 12 13 13 13 13 13
3 3 3 3 3 3 3 3 3 3 3 3 2 2 2 1 1 -0 -1 -1 -2 -2 -2 -2 -2 -2 -2 -2 -2 -2 -2 -2 -2 -2 -2 -2 -2 -1 -1 -1 -1 -0 -0 0 1 1 2 3 3 3 4 5 6 8 9 9 10 10 10 10 11 11 11 12 12 11 11 11 11 11 11 11 11 11 11 11 12 12 12 12 13 13 13 13 13
4 4 4 4 4 4 4 3 3 3 3 3 2 2 2 2 1 0 -0 -1 -2 -2 -2 -2 -2 -2 -2 -2 -2 -2 -2 -2 -2 -2 -2 -2 -2 -2 -1 -1 -1 -1 -0 -0 0 1 2 2 3 4 4 5 6 7 8 9 10 10 11 11 11 11 11 12 12 12 12 11 11 11 11 11 11 11 11 11 12 12 12 12 12 13 13 13 13
4 4 4 4 4 4 4 4 3 3 3 3 2 2 2 2 1 1 0 -0 -1 -1 -2 -2 -2 -2 -2 -2 -2 -2 -2 -2 -2 -2 -2 -2 -2 -2 -1 -1 -1 -1 -0 -0 0 1 1 2 2 3 4 4 5 5 6 7 8 9 10 11 11 11 11 11 12 12 12 12 11 11 11 11 11 11 11 11 12 12 12 13 13 13 13 13 13
4 4 4 4 4 4 3 4 4 3 3 3 2 2 2 2 1 1 1 0 -0 -1 -1 -2 -2 -2 -2 -2 -3 -3 -2 -2 -2 -2 -2 -2 -2 -2 -2 -1 -1 -1 -1 -0 0 0 1 1 2 2 3 3 4 5 5 6 7 7 8 10 11 11 10 10 11 12 12 12 12 12 12 12 12 12 12 12 12 12 12 13 13 13 13 13 13
4 4 4 4 4 4 3 3 3 3 3 3 2 2 2 2 1 1 1 1 0 -0 -1 -1 -1 -2 -2 -2 -2 -3 -3 -3 -2 -2 -2 -2 -2 -2 -2 -1 -1 -1 -1 -0 -0 0 0 1 1 2 2 3 3 4 5 5 6 6 7 8 9 10 10 10 11 11 11 12 12 12 12 12 12 12 12 12 12 12 12 13 13 13 13 13 13
4 4 5 4 4 4 4 3 3 3 3 3 2 2 2 2 1 1 1 1 0 0 -0 -1 -1 -1 -2 -2 -2 -3 -3 -3 -3 -3 -3 -2 -2 -2 -2 -2 -1 -1 -1 -1 -1 -0 -0 0 1 1 2 2 2 3 4 4 5 6 6 7 8 8 9 10 11 12 12 11 12 12 12 12 12 12 12 12 12 13 13 13 13 13 13 13 12
5 5 5 5 4 4 4 4 3 3 3 3 2 2 2 2 1 1 1 1 0 0 -0 -0 -1 -1 -1 -2 -2 -2 -3 -3 -3 -3 -3 -3 -3 -2 -2 -2 -1 -1 -1 -1 -1 -1 -0 0 1 1 1 2 2 3 3 3 4 4 5 6 7 7 8 9 11 11 12 12 12 12 12 12 12 12 12 12 13 13 13 13 13 12 12 12 12
5 5 5 5 5 4 4 4 3 3 3 3 2 2 2 1 1 1 1 0 0 -0 -0 -1 -1 -1 -1 -2 -2 -2 -3 -3 -3 -3 -3 -3 -3 -3 -2 -2 -2 -1 -1 -1 -1 -1 -0 0 1 1 1 2 2 3 3 3 3 4 5 5 6 7 8 9 9 10 11 11 11 11 12 12 12 12 12 12 12 12 12 13 12 12 12 12 12
Height
763 766 768 769 771 772 774 775 776 778 778 779 779 780 781 781 782 782 783 783 783 783 784 784 784 784 784 783 783 783 783 782 782 782 781 780 780 779 779 778 778 777 777 777 777 776 776 776 776 776 776 776 775 775 774 774 774 773 773 772 771 771 769 768 766 762 762 762 761 759 758 759 759 758 758 758 757 758 759 760 762 763 764 765 766
760 763 765 767 768 770 771 773 774 775 776 777 777 777 778 779 779 779 780 780 780 781 781 781 781 781 780 780 780 780 780 779 779 779 778 777 777 776 776 775 775 775 774 774 774 774 773 773 773 773 773 773 772 772 771 771 771 770 770 770 768 768 767 766 764 761 760 759 758 757 756 756 756 756 756 756 755 756 757 757 759 760 761 762 764
757 760 763 765 766 768 769 770 771 772 773 774 774 775 776 776 776 777 777 777 778 778 778 778 778 777 777 777 777 777 777 776 776 775 775 775 774 773 773 773 772 772 771 771 771 771 770 770 770 770 770 770 769 769 769 768 768 767 767 767 766 765 765 764 762 760 758 757 755 755 754 753 753 753 754 754 754 754 754 755 756 757 759 760 761
755 758 760 762 764 765 766 767 768 769 770 771 772 773 773 774 774 774 774 775 775 775 774 774 774 774 774 774 774 774 773 773 773 772 772 771 771 770 770 770 770 769 769 768 768 768 767 767 767 767 767 766 766 766 766 765 764 764 764 763 763 762 762 761 760 759 757 755 753 752 751 750 750 750 751 752 752 752 752 753 754 755 756 757 759
754 755 757 759 760 762 763 764 766 767 768 769 770 770 771 771 771 771 771 771 771 771 771 771 771 771 771 770 770 770 769 769 769 768 768 768 768 767 767 767 767 766 766 766 766 765 765 764 764 764 764 763 763 763 762 762 761 761 761 760 760 759 759 758 758 757 755 753 751 750 749 748 748 748 749 749 750 750 751 751 752 753 754 756 757
753 754 755 755 757 758 760 761 763 764 766 766 767 768 768 768 768 768 768 768 767 767 767 767 767 767 767 766 766 765 765 765 765 764 764 764 764 764 763 763 763 763 763 763 762 762 762 762 761 761 761 760 760 760 759 759 758 758 758 757 757 757 756 756 756 755 754 752 750 748 747 746 746 745 746 746 747 748 749 749 750 751 752 753 755
752 754 754 753 754 755 757 759 760 762 763 764 764 765 765 765 765 765 765 764 764 764 764 763 763 763 762 761 761 761 760 761 761 760 760 760 760 760 760 759 759 759 759 759 759 759 758 759 758 758 758 758 758 757 757 756 755 755 754 754 754 754 753 753 753 752 752 751 748 746 745 744 744 744 743 744 745 746 747 747 748 749 750 751 752
750 751 752 752 753 754 755 757 758 759 760 761 761 762 762 762 762 762 762 761 761 760 760 759 759 758 758 757 756 756 756 756 756 756 756 756 756 756 756 756 755 755 755 755 755 755 754 755 755 755 755 755 755 755 754 754 752 752 752 751 751 750 750 750 750 750 750 749 747 745 744 743 743 742 743 743 743 743 743 744 745 746 747 749 751
748 749 750 751 751 752 753 755 755 757 757 758 758 758 759 759 759 759 759 758 757 757 756 755 755 754 753 752 752 752 752 752 752 752 752 752 752 752 751 751 751 751 750 750 750 750 750 751 751 751 752 752 752 752 751 751 750 749 749 749 748 747 747 747 747 748 747 746 745 744 743 741 741 742 742 741 740 740 740 741 741 743 745 748 750
745 747 747 748 749 750 751 752 753 754 754 755 755 755 756 756 756 756 755 754 754 753 752 752 751 750 749 748 748 747 747 747 748 748 748 748 748 748 747 747 746 746 745 745 745 745 746 746 746 747 748 748 748 748 748 747 747 747 747 747 746 745 745 744 744 745 745 744 743 743 742 740 740 740 740 738 737 738 739 739 740 742 744 747 750
742 744 745 746 747 748 749 750 751 751 752 752 753 753 753 753 752 752 752 751 751 750 749 748 747 747 745 744 744 743 743 744 744 744 745 744 744 744 743 742 741 741 741 740 740 741 741 742 742 743 743 744 744 744 744 744 743 743 743 743 743 743 742 742 741 741 742 741 740 741 741 739 738 738 738 737 737 737 737 737 738 740 742 744 747
741 743 744 745 746 747 748 748 749 749 750 750 750 750 750 750 749 749 748 748 748 747 746 745 744 744 743 742 741 740 740 740 741 741 740 740 740 739 738 737 736 736 736 736 736 736 737 737 737 738 738 739 740 740 739 740 739 739 738 738 739 739 739 739 739 738 738 738 737 737 738 737 736 736 736 736 736 736 735 735 736 737 738 740 742
742 743 743 744 745 746 748 748 748 748 748 748 748 747 747 747 747 746 746 745 745 744 743 743 742 741 740 739 738 737 737 737 737 737 736 736 736 735 733 732 732 732 732 732 732 732 732 733 732 733 734 734 735 735 735 735 735 735 734 734 734 735 735 735 735 735 735 735 734 734 734 735 734 734 734 734 734 733 733 734 735 735 736 736 737
744 744 744 745 745 746 747 747 747 747 747 746 745 745 745 744 744 744 743 743 742 741 741 740 739 739 737 736 735 734 733 733 733 733 732 731 731 730 729 728 728 728 728 728 728 728 728 728 728 728 729 730 730 731 731 731 731 731 730 730 729 730 731 731 732 732 732 732 731 731 731 732 732 731 732 732 732 731 730 731 732 733 734 735 736
746 746 746 746 746 746 746 745 745 745 744 744 743 742 742 742 742 742 741 740 739 738 738 737 736 735 734 733 731 730 729 730 729 728 728 727 727 727 726 725 724 723 723 723 724 723 724 724 723 723 724 724 725 726 727 727 727 726 726 725 725 725 726 727 727 728 728 728 728 728 729 729 729 728 729 730 730 730 729 728 728 729 732 735 737
745 745 745 745 745 744 743 743 742 742 741 741 740 740 740 739 739 739 738 737 736 735 734 733 732 731 730 729 727 725 725 725 725 724 724 723 723 722 721 720 719 718 718 718 718 718 718 718 718 718 719 719 720 721 722 723 723 722 722 721 721 721 721 722 723 724 724 725 725 726 726 726 726 726 726 727 727 727 728 728 727 727 730 733 735
742 742 742 742 742 741 740 740 740 739 739 739 738 738 738 737 737 736 735 733 733 732 730 729 728 727 726 725 723 721 720 720 720 719 719 719 718 717 716 715 714 713 713 713 713 712 712 713 713 713 713 714 715 716 717 718 718 718 718 717 718 717 716 717 719 720 720 721 722 722 723 723 723 723 723 724 724 724 726 727 726 725 727 730 733
740 740 740 740 739 739 739 738 737 737 737 737 737 736 735 735 734 733 732 730 729 728 727 725 724 723 721 720 718 716 715 715 715 714 713 714 714 713 712 710 709 709 708 708 707 707 706 706 707 707 707 707 709 710 712 713 713 713 713 713 713 712 711 712 714 715 716 717 718 719 719 719 720 720 720 720 720 722 723 724 724 723 724 727 729
739 739 738 738 737 737 737 736 736 736 735 735 735 734 733 732 731 730 729 727 726 724 723 721 719 718 716 715 713 712 710 709 710 709 709 709 709 708 708 706 704 704 703 702 700 700 699 699 700 701 701 702 703 704 705 707 707 707 708 709 708 706 706 708 710 711 712 713 714 715 715 716 716 717 717 716 716 718 719 721 722 721 721 722 725
738 737 737 736 736 736 735 735 734 734 734 733 732 731 730 729 728 727 726 724 722 720 719 717 715 713 712 710 709 708 706 704 704 704 704 704 704 704 703 701 699 699 697 696 694 694 693 693 692 693 695 696 698 698 699 700 701 701 702 702 701 701 703 705 706 707 708 708 709 711 711 712 713 713 712 712 712 714 715 716 718 718 718 719 721
736 736 735 735 735 734 733 733 733 733 732 731 730 728 727 726 725 724 722 721 719 716 714 712 710 708 707 706 704 702 701 700 699 699 699 699 699 699 697 695 695 694 692 690 689 688 687 687 686 686 688 689 691 692 693 694 694 695 695 695 696 698 701 702 702 703 704 704 705 706 707 708 709 709 708 708 708 709 711 712 713 714 714 715 717
735 734 733 733 732 732 732 732 731 731 730 729 727 725 724 723 722 720 719 717 714 712 710 708 706 704 702 701 699 697 696 695 694 694 694 693 693 693 692 690 690 690 686 683 682 682 681 681 680 681 682 682 683 684 685 687 688 688 689 690 693 695 696 697 697 699 699 699 700 701 702 703 704 704 704 704 704 706 707 708 709 710 710 710 710
734 732 731 730 730 730 730 729 729 728 727 726 725 723 721 720 718 716 715 713 710 708 706 704 702 699 697 696 694 693 691 690 689 689 688 687 686 686 685 684 684 684 680 675 674 674 674 674 674 675 676 676 676 676 677 679 680 681 683 686 688 689 691 692 693 694 694 694 695 696 697 698 699 700 700 700 701 702 703 704 706 707 708 708 707
732 731 729 729 728 727 727 727 726 726 725 723 722 720 718 716 714 712 711 709 707 705 702 700 698 696 693 691 689 688 686 685 685 684 682 680 679 679 678 676 676 676 673 668 667 667 667 666 667 668 669 669 669 671 671 671 672 674 677 680 681 683 686 687 687 689 689 689 690 691 692 693 694 695 696 697 698 699 700 700 702 704 705 706 707
730 729 728 727 726 725 724 724 724 724 722 720 719 717 715 713 711 709 707 706 704 702 699 697 695 692 690 688 685 684 682 680 679 677 675 674 672 670 670 669 668 668 665 660 658 659 659 659 660 661 661 662 663 665 665 665 666 668 670 673 675 677 679 680 681 682 683 683 684 685 686 688 690 692 694 695 695 696 696 697 698 701 702 703 705
729 728 727 726 725 724 723 723 722 720 719 717 715 714 712 710 708 706 705 703 701 699 697 695 692 690 688 685 682 680 678 676 673 671 669 668 665 663 663 660 659 659 656 651 650 650 651 652 653 653 654 655 656 657 657 658 659 661 663 665 667 669 671 672 673 675 675 676 679 680 682 684 687 689 691 692 692 693 694 694 695 697 699 700 702
728 728 727 726 725 723 722 720 719 717 715 714 712 711 709 708 705 703 702 701 699 697 694 692 690 688 685 682 679 676 673 671 669 666 664 662 660 657 656 653 651 650 647 643 642 642 643 643 644 645 646 647 649 650 651 652 653 654 655 657 659 661 663 665 666 667 669 672 674 676 678 681 684 686 687 688 689 690 691 691 692 693 695 697 699
728 727 727 725 723 722 720 718 715 713 712 711 710 708 706 704 702 701 700 699 697 695 692 691 689 686 683 679 675 671 669 667 664 662 660 657 654 651 648 646 643 641 639 636 635 636 635 635 636 637 638 639 641 642 644 645 646 646 647 649 652 655 657 660 662 663 665 669 671 673 675 678 680 681 683 685 687 688 689 689 689 690 693 695 696
727 727 725 724 722 719 717 715 712 711 709 708 707 706 704 702 700 699 698 697 696 694 692 690 687 684 681 677 673 668 664 661 660 658 654 651 648 645 640 637 635 632 629 629 630 630 628 628 628 628 629 630 632 633 634 636 638 639 641 643 646 649 652 654 656 658 660 664 667 669 671 673 675 677 680 682 684 686 687 687 687 688 690 692 693
726 725 723 722 719 716 714 712 710 709 708 707 705 702 700 700 699 697 695 694 694 692 690 688 685 681 677 674 671 666 660 656 654 651 647 642 639 636 631 627 625 622 619 620 622 622 620 618 618 618 619 621 622 624 625 627 629 631 633 636 639 642 644 646 649 651 655 659 662 664 667 669 671 674 676 679 681 683 685 685 685 686 687 688 690
725 723 721 718 715 713 711 710 709 708 707 706 703 700 697 696 695 694 693 691 690 688 686 684 681 678 674 669 665 662 656 651 647 643 638 633 629 625 621 616 613 611 609 610 610 608 607 607 607 608 610 612 613 615 616 618 620 623 627 630 633 635 638 640 643 647 651 654 657 660 663 665 668 670 673 676 678 681 682 683 683 684 684 685 687
723 721 718 715 713 711 710 709 708 707 706 704 701 699 696 693 691 691 690 689 687 686 683 680 677 674 671 667 661 656 651 646 641 636 631 626 620 615 611 607 604 601 599 598 595 592 592 595 597 599 602 603 605 608 610 611 613 617 620 624 627 629 632 635 638 643 646 649 652 656 659 661 664 667 670 673 675 678 680 680 680 680 681 682 684
720 718 715 712 711 710 709 709 708 706 704 702 700 699 697 694 691 688 686 684 682 681 679 677 673 670 666 662 657 652 646 641 636 630 624 619 613 607 603 599 596 593 590 586 581 578 580 584 588 591 594 595 597 601 604 605 608 612 615 619 621 624 627 631 635 639 642 645 649 652 655 658 661 664 667 670 672 675 677 677 678 678 678 678 680
717 715 713 712 711 710 709 708 707 704 703 702 700 699 697 695 692 689 685 680 676 673 672 670 668 664 660 656 652 647 642 636 631 625 619 613 607 602 597 593 590 587 583 577 572 570 572 576 580 584 587 589 591 595 598 601 604 608 611 615 618 621 624 628 631 634 638 642 646 649 652 655 657 660 663 666 669 671 673 674 675 676 676 676 676
715 713 712 711 711 710 708 707 705 704 703 702 701 699 697 695 693 690 687 683 678 674 670 667 664 661 657 653 648 644 638 633 627 621 615 610 604 598 592 588 585 582 578 574 570 569 570 572 576 580 582 584 587 590 593 597 600 604 607 611 614 618 621 624 627 631 634 638 642 645 648 651 653 656 659 662 665 668 669 671 673 674 674 675 674
713 713 712 711 710 709 708 706 705 705 704 703 701 699 697 695 693 690 687 684 680 676 671 667 663 659 655 651 646 640 635 629 624 618 613 608 601 595 591 587 583 579 576 574 572 571 570 572 574 576 578 581 583 587 590 593 597 600 604 608 611 614 617 620 624 627 631 635 638 642 645 647 649 652 655 658 661 663 666 668 670 671 672 673 673
714 713 712 711 710 709 708 707 706 705 704 702 701 699 697 695 692 689 686 683 680 676 672 667 662 657 653 648 643 638 632 627 622 616 611 605 598 594 591 588 583 578 576 574 573 572 571 572 573 574 576 579 581 584 588 591 594 598 602 605 608 610 614 617 621 624 628 631 635 638 641 643 646 649 651 654 657 660 662 664 666 668 669 670 671
714 713 712 712 710 709 708 708 707 705 704 702 700 699 696 694 692 689 686 683 679 676 672 667 662 658 652 647 643 638 631 625 620 614 608 603 598 595 592 588 583 579 576 574 572 571 571 571 572 574 576 578 580 583 586 590 593 596 600 603 606 608 612 615 618 621 624 628 631 634 637 639 642 645 648 651 654 657 658 660 662 664 666 667 667
714 714 713 712 711 710 709 708 707 705 704 702 700 698 696 694 692 689 686 683 679 676 672 667 663 659 654 649 644 638 631 625 620 614 609 605 601 598 594 589 585 581 577 574 572 571 571 572 573 574 576 578 580 583 586 589 592 595 598 601 604 607 610 613 615 618 622 625 628 630 633 636 639 642 645 647 650 653 654 656 659 661 663 663 663
715 714 714 712 712 711 710 708 707 705 703 702 700 698 696 695 692 690 687 684 680 676 672 668 664 660 656 651 645 639 633 628 623 618 613 609 605 600 596 591 587 583 579 576 574 572 572 573 574 575 576 578 580 582 585 588 591 594 597 599 602 605 608 610 613 616 619 622 625 627 630 633 636 639 641 643 646 648 650 653 655 657 659 661 661
716 715 714 713 713 711 710 709 707 705 704 702 700 699 697 695 693 691 688 685 681 677 673 669 665 661 656 651 646 641 636 631 625 621 616 612 608 603 599 594 590 586 582 579 576 574 574 574 574 574 575 577 579 581 584 587 590 593 595 598 601 603 606 609 612 614 617 620 622 624 627 630 633 635 637 640 642 645 648 650 652 654 656 658 659
717 716 715 714 713 712 711 709 707 705 704 703 701 700 698 696 694 692 689 686 682 678 674 670 666 661 656 651 646 641 637 632 628 623 619 614 610 605 601 596 592 588 585 581 578 576 575 574 574 574 575 577 579 581 583 586 589 592 594 597 600 602 605 607 609 612 614 617 619 621 624 627 630 631 634 636 639 642 644 647 649 651 652 654 656
718 717 716 715 714 712 711 710 708 706 705 703 702 701 699 697 695 693 690 687 683 679 675 671 667 662 657 652 646 642 638 634 630 625 620 616 612 607 603 598 594 590 587 584 581 579 578 576 576 577 577 578 580 581 583 585 588 591 594 596 598 600 603 605 607 609 612 614 617 619 622 624 627 629 631 634 636 639 641 643 646 647 649 650 653
719 718 717 715 714 713 712 710 709 707 706 704 703 702 700 698 696 693 691 688 684 680 677 673 669 664 659 654 649 645 641 637 632 628 624 619 615 610 606 602 597 593 589 586 584 582 580 579 578 578 578 578 579 580 582 585 587 590 592 594 596 598 600 602 604 606 609 611 614 617 619 621 624 626 628 630 633 635 638 640 642 644 646 648 650
720 719 718 717 715 714 713 711 710 708 707 706 705 703 701 699 697 694 692 689 685 682 678 674 670 666 661 657 652 648 644 640 636 632 627 623 618 614 609 605 601 597 593 589 586 584 582 580 579 578 577 578 579 581 582 584 586 588 590 592 594 596 598 600 601 604 607 609 611 614 616 618 621 623 625 627 630 632 634 637 639 642 643 645 647
721 720 719 718 717 716 714 713 712 710 709 707 706 704 702 700 698 696 694 691 687 684 680 676 672 668 663 659 655 651 647 643 639 635 631 627 622 617 613 608 604 601 597 593 589 587 585 583 582 581 581 581 582 583 584 585 586 587 588 590 591 593 595 597 599 601 604 606 608 611 613 616 618 620 622 624 626 629 632 634 636 638 640 642 644
723 722 721 720 719 717 716 715 713 712 710 709 708 706 704 702 700 698 695 693 690 686 683 679 675 671 667 663 659 655 651 647 643 638 634 630 626 622 617 613 608 605 601 597 593 591 589 588 587 586 586 585 585 585 585 585 585 586 587 588 589 591 593 595 597 599 601 603 605 608 610 612 615 617 619 621 624 626 629 631 632 635 636 638 641
725 724 723 722 720 719 718 716 715 714 712 711 709 708 706 704 701 699 697 695 692 689 685 682 678 674 671 667 663 659 655 651 646 642 638 633 630 626 622 617 614 610 606 602 599 597 595 594 592 591 589 588 587 586 584 584 584 584 585 586 588 589 591 593 595 597 598 601 603 605 607 609 611 614 616 618 620 623 625 627 629 631 633 636 639
727 725 724 724 723 722 720 719 718 716 715 713 712 710 707 705 703 701 699 697 694 691 689 685 682 678 674 671 667 663 658 654 650 646 642 637 633 629 626 622 618 615 611 608 606 603 601 598 596 594 593 591 590 588 587 586 585 585 586 586 587 588 589 590 592 593 595 598 600 602 604 606 608 610 613 615 617 619 622 624 626 628 630 633 636
728 727 726 725 725 724 723 722 720 719 717 716 714 712 709 707 705 702 700 698 696 694 691 688 685 682 678 674 671 667 663 659 655 651 647 642 638 633 628 624 621 618 615 612 609 606 603 601 598 596 595 594 593 593 592 591 590 588 587 586 586 586 586 587 588 590 592 594 596 598 601 603 605 607 609 611 614 616 618 620 622 625 627 630 632
730 729 728 728 727 726 725 724 723 721 720 718 716 714 712 710 707 705 703 700 698 696 694 691 688 685 682 679 675 672 668 664 660 656 652 648 643 638 633 629 625 622 618 615 612 610 607 604 602 600 598 597 596 595 594 593 591 589 587 586 584 583 583 584 585 586 588 590 592 595 597 599 601 604 606 608 610 612 614 616 619 621 623 626 629
Wind_Speed
29 29 28 27 27 26 25 24 23 23 21 21 21 21 20 20 21 21 20 19 17 16 15 14 14 15 16 17 17 17 17 17 17 17 17 18 18 18 19 19 20 21 21 21 21 23 26 27 27 26 25 25 24 25 24 22 22 21 20 20 22 23 24 23 15 11 19 25 25 26 27 25 22 21 20 19 18 17 16 19 22 23 24 23 23
30 29 28 28 28 27 26 24 23 22 21 21 21 22 22 22 22 20 18 17 15 15 15 16 18 20 20 20 19 17 17 16 16 16 16 17 17 17 18 18 18 18 18 19 19 20 22 24 25 25 25 26 27 27 27 26 23 23 21 20 21 22 22 24 21 14 15 23 25 23 25 25 24 23 20 18 18 16 15 17 21 23 24 24 24
31 30 29 28 28 27 25 24 22 22 22 23 23 23 22 21 19 18 17 16 16 17 19 20 21 21 19 18 17 17 17 17 17 16 16 16 16 16 16 17 18 18 19 21 21 20 21 22 23 24 24 26 27 27 29 29 26 24 23 21 22 23 23 23 24 19 16 20 24 23 23 24 25 24 21 18 16 16 16 18 19 21 23 24 25
30 28 28 27 26 25 25 23 23 23 23 23 22 21 19 17 16 16 17 17 19 20 22 22 21 19 17 17 18 19 19 19 18 17 16 16 17 16 16 16 16 17 18 18 18 19 19 21 22 23 24 25 26 26 28 31 30 27 24 23 23 22 22 22 23 24 21 19 22 24 24 23 24 25 23 20 17 16 17 18 19 21 23 24 25
28 27 27 26 25 25 24 24 23 23 22 20 19 17 15 15 15 16 17 19 21 22 21 20 18 18 19 21 22 23 22 21 19 18 17 17 17 17 17 16 16 16 16 17 17 17 17 18 19 20 22 24 24 24 26 29 30 29 26 25 24 22 22 21 22 25 24 22 22 25 24 23 23 24 24 22 18 16 17 19 20 22 23 24 25
27 27 27 27 27 25 23 22 20 18 16 15 13 13 13 14 16 18 20 22 22 20 19 19 20 22 24 25 26 25 24 22 21 20 20 20 20 20 19 19 19 19 19 19 20 20 19 20 20 19 20 22 23 23 24 27 29 29 27 26 26 24 21 19 18 21 23 23 26 25 23 22 22 24 25 23 18 16 17 19 21 23 25 25 26
27 29 29 27 25 21 18 15 13 11 11 11 11 12 14 15 18 20 21 21 20 20 22 24 25 25 26 27 27 26 24 24 23 23 23 23 23 23 23 22 22 21 21 21 22 22 22 22 20 19 19 21 22 21 22 24 27 29 29 28 27 24 20 17 17 19 19 20 22 22 23 23 22 24 25 22 19 19 19 19 19 21 24 27 27
29 28 25 20 16 12 9 7 7 7 8 9 11 13 15 17 19 20 20 20 22 24 26 28 27 27 29 30 30 28 27 26 26 26 26 26 25 25 24 24 23 23 23 23 24 24 24 23 23 22 23 24 23 23 22 21 22 25 26 28 28 25 22 19 17 16 16 17 19 20 22 21 19 22 22 18 17 19 21 23 22 22 24 26 27
22 18 14 10 7 5 4 4 4 6 8 10 12 13 15 16 17 19 20 21 23 25 27 28 29 30 31 32 32 30 30 29 29 29 28 26 25 24 24 23 23 24 24 24 25 25 25 25 25 24 24 25 25 25 24 22 21 21 23 25 27 26 24 21 16 15 15 15 16 19 19 18 17 18 17 18 20 20 22 25 24 24 25 23 24
14 11 9 7 4 2 1 2 4 5 7 9 11 12 13 15 17 19 20 22 23 24 25 28 30 32 32 31 30 30 30 30 30 28 26 24 23 24 25 25 25 26 26 26 25 25 25 25 26 25 26 26 26 26 25 25 25 25 25 25 26 27 26 22 17 15 15 14 14 16 15 17 19 18 17 23 25 21 21 23 21 22 23 18 15
12 10 8 7 4 2 2 2 3 5 7 9 11 12 14 15 16 18 19 20 20 21 22 24 26 28 28 28 28 28 28 28 26 25 24 24 25 26 27 28 28 28 28 27 27 26 27 27 27 27 27 27 27 27 28 28 28 29 29 26 26 27 26 23 20 18 17 16 16 16 14 16 20 19 20 24 23 20 22 24 22 23 22 16 10
12 11 10 8 6 6 5 6 6 8 9 10 11 12 12 13 14 15 16 17 18 19 20 21 23 24 24 26 27 27 27 26 25 24 25 25 25 27 29 30 29 29 29 28 28 28 27 28 28 28 28 29 29 30 30 30 29 30 31 30 28 28 28 26 23 21 19 17 17 17 16 17 19 18 19 21 21 21 23 24 25 26 24 20 16
12 11 10 9 8 8 8 9 9 9 9 9 10 11 13 14 16 17 19 20 21 22 22 23 23 23 23 25 26 27 27 26 26 26 26 26 26 27 29 29 29 29 28 28 28 28 28 28 28 29 29 30 30 29 29 30 30 30 32 33 32 30 30 29 26 22 22 20 19 20 20 20 20 20 20 20 21 24 23 21 25 27 25 25 25
11 10 9 8 8 8 8 8 8 8 9 10 12 14 15 17 19 20 22 22 23 23 23 23 23 23 24 24 25 26 26 26 26 26 26 26 26 26 27 27 27 28 28 28 28 29 29 30 30 30 30 30 30 29 28 29 29 30 32 34 33 31 30 31 28 23 22 23 22 23 24 23 24 25 25 22 21 23 23 25 28 28 27 27 26
9 8 8 7 7 7 7 9 10 12 14 15 16 17 18 20 21 22 23 23 23 23 23 24 25 26 26 25 26 27 26 25 25 25 25 25 25 26 27 28 29 30 30 31 31 32 32 32 32 32 31 31 30 30 29 29 29 30 31 33 33 31 31 32 32 28 26 25 25 25 24 23 24 27 28 27 24 21 21 26 33 34 31 25 19
8 7 7 6 6 7 10 12 14 15 17 18 19 19 20 21 21 23 23 24 24 24 25 26 26 27 28 27 28 29 28 27 27 27 27 28 29 30 31 31 31 32 32 32 32 33 33 33 33 32 32 32 32 31 30 30 30 30 30 31 32 32 32 33 34 33 30 27 26 26 26 25 24 24 25 28 28 24 21 23 28 30 27 20 15
7 7 7 7 9 11 13 14 15 16 17 18 20 21 21 22 23 23 23 24 24 25 27 28 27 28 28 28 28 29 29 28 28 29 30 30 31 31 31 31 31 31 31 31 32 32 33 33 33 33 34 34 34 33 32 31 31 32 31 31 31 32 33 33 33 33 32 30 28 28 28 28 26 23 21 25 29 27 22 19 23 27 23 14 11
6 6 8 9 11 13 14 15 16 17 18 19 20 21 22 23 23 23 23 24 25 26 28 29 28 28 29 29 28 28 29 28 28 30 30 29 30 30 30 30 30 29 30 31 32 33 34 34 34 35 35 35 35 35 34 33 33 33 32 31 30 31 33 33 32 32 32 30 29 28 29 30 28 24 21 22 26 29 27 22 23 27 24 16 13
6 8 9 11 12 13 14 16 17 18 19 20 20 22 22 23 23 23 23 25 27 28 28 28 28 28 29 29 28 28 28 29 29 29 29 29 29 29 29 28 28 28 30 31 32 34 35 36 36 36 36 35 35 36 36 35 35 34 33 31 30 32 35 33 31 31 31 30 29 29 30 31 29 27 25 23 23 27 31 28 25 29 28 22 21
6 8 9 10 12 13 15 17 18 19 20 21 22 22 22 23 23 24 25 27 28 27 27 27 28 28 28 28 29 29 29 30 29 29 29 29 29 29 29 29 29 29 30 31 31 32 33 35 36 37 38 37 36 37 38 38 38 37 36 33 32 34 36 34 30 31 32 31 30 29 30 30 29 29 28 25 22 25 32 32 29 32 33 28 25
5 6 8 10 12 14 16 18 19 20 21 22 22 22 22 23 25 25 26 27 26 26 27 27 27 28 28 30 30 30 28 28 29 30 31 31 31 31 32 32 31 30 31 31 30 31 32 32 33 35 37 39 40 41 41 42 42 40 39 37 36 37 37 35 32 31 32 32 31 30 29 29 28 28 28 26 24 24 30 34 32 34 38 34 30
4 6 9 11 13 16 17 18 18 20 21 22 23 23 23 24 25 25 25 25 26 26 27 27 27 28 29 28 27 27 28 30 31 32 32 34 35 35 36 36 35 33 34 35 34 34 34 34 35 34 34 36 40 43 44 45 45 45 43 40 40 40 39 38 35 30 31 31 29 28 28 27 27 28 26 25 25 25 29 34 33 33 39 42 40
5 8 10 13 15 17 17 17 18 20 21 22 22 23 24 24 24 25 25 25 26 26 27 26 25 24 24 24 26 29 31 32 32 32 33 35 37 37 37 38 38 37 37 38 37 36 37 37 38 38 37 37 38 41 45 47 48 48 46 44 43 42 42 40 36 31 31 31 27 27 27 26 27 26 23 24 25 26 28 32 33 31 34 39 42
8 10 12 13 15 16 17 18 19 20 21 21 22 22 23 23 23 24 24 24 24 24 24 22 21 20 22 25 28 30 31 31 32 33 35 38 39 38 38 39 39 39 40 42 41 39 39 39 40 41 42 41 40 40 42 46 49 48 47 47 47 45 42 40 37 33 31 30 27 26 27 27 27 25 23 25 26 26 28 30 31 31 31 34 39
9 11 13 14 15 16 16 17 18 19 19 20 20 21 22 22 22 22 24 24 23 21 19 19 20 21 22 23 26 28 31 32 33 35 37 38 38 38 38 39 40 40 43 46 45 43 43 43 42 43 44 44 43 41 41 45 49 49 47 46 47 46 42 40 37 33 31 29 28 27 28 29 28 25 24 25 26 26 27 28 28 28 29 32 37
11 12 13 15 15 15 15 16 17 18 18 19 20 21 21 21 21 23 23 22 19 18 19 20 20 20 20 22 25 28 30 31 33 35 36 35 36 37 38 39 41 42 44 48 48 47 47 46 45 45 45 44 43 41 39 40 45 48 48 47 47 45 42 40 37 34 31 30 29 28 30 30 28 26 25 25 24 24 26 26 25 26 26 28 32
10 12 14 16 15 14 14 15 16 17 18 19 21 21 20 20 21 22 20 18 18 19 20 19 19 19 21 23 26 27 28 29 30 32 33 32 34 35 36 37 38 38 39 41 41 41 42 44 45 46 46 43 42 42 39 37 39 42 45 46 46 44 42 41 39 36 33 31 29 29 31 30 28 27 27 24 22 23 26 26 25 24 25 27 29
10 13 15 16 15 13 13 15 16 17 19 20 20 20 21 21 21 20 18 18 18 19 19 18 20 22 23 24 26 27 28 29 29 31 33 34 36 38 37 36 35 34 34 35 34 32 33 35 36 39 41 39 39 39 38 37 38 39 40 42 43 42 42 41 40 36 34 31 28 27 29 29 29 29 27 23 21 22 25 27 27 26 25 26 26
11 14 15 14 13 12 14 16 16 17 18 20 20 20 20 19 19 21 22 19 17 18 19 21 23 25 26 27 28 28 30 31 33 36 39 41 42 43 42 41 40 40 40 39 35 31 29 29 28 29 31 32 32 32 32 34 36 37 38 38 39 39 39 38 36 35 34 32 29 27 28 28 29 28 25 22 22 23 24 26 27 26 26 26 25
12 13 13 12 12 13 15 16 17 16 17 19 20 21 20 19 20 22 22 19 17 18 20 22 24 27 28 29 29 30 33 37 39 40 43 44 45 45 45 46 47 46 47 46 40 35 31 28 27 26 26 28 28 28 29 31 32 33 34 35 36 36 36 36 36 35 34 33 31 30 29 28 27 25 22 21 22 23 24 25 26 25 25 25 23
11 12 11 11 13 14 15 16 17 16 16 17 19 20 21 22 22 19 17 18 21 23 23 24 25 25 27 30 31 32 35 38 40 42 43 45 44 43 43 44 44 44 46 45 44 40 34 29 27 26 26 25 26 27 28 29 30 30 30 31 33 34 34 35 36 35 33 33 33 31 30 28 26 24 23 23 22 21 23 25 25 26 26 25 23
11 11 11 13 14 15 15 16 16 15 16 17 17 18 20 22 21 19 18 20 22 22 23 24 25 25 26 29 32 34 36 38 40 42 42 42 40 39 38 37 36 38 39 39 41 44 39 31 26 26 26 25 25 27 27 27 28 28 28 28 29 31 33 34 35 35 33 32 31 31 30 29 27 24 24 25 23 21 22 21 21 24 26 27 26
11 11 13 14 14 14 15 15 15 15 16 17 18 18 18 18 19 21 23 25 27 26 24 24 25 27 29 30 31 34 36 38 40 41 39 37 36 35 33 31 30 30 30 30 34 38 37 32 27 26 26 25 25 27 27 26 26 28 28 28 28 29 32 34 35 35 34 32 30 30 30 29 28 26 26 26 24 23 22 20 18 18 21 24 26
10 11 13 13 13 14 14 14 15 16 17 17 17 17 17 17 18 20 22 25 29 30 30 30 30 30 32 32 33 34 36 38 39 38 36 35 34 30 26 25 24 22 20 20 23 26 27 27 25 25 26 25 25 26 26 26 26 28 28 29 28 28 30 33 34 33 33 31 29 30 30 30 28 27 26 26 24 23 22 21 19 17 17 18 21
10 12 13 13 13 13 13 14 16 16 16 15 15 15 16 17 18 19 19 20 22 24 27 31 32 32 32 32 33 34 36 37 37 35 33 33 30 25 21 19 17 15 13 12 12 16 19 21 22 24 25 25 24 25 27 27 28 28 28 27 27 28 29 31 32 32 32 30 29 30 30 29 29 29 28 26 25 23 22 21 20 18 19 18 19
12 13 13 13 13 14 14 15 15 13 12 12 13 14 16 16 17 18 19 19 20 21 23 27 30 30 30 31 33 36 37 37 35 31 30 31 28 23 20 18 15 11 9 7 5 10 14 18 20 23 24 24 25 26 28 28 28 28 28 27 28 29 30 30 31 31 31 30 30 30 29 29 29 30 29 27 26 25 24 23 22 21 22 22 21
12 13 13 13 14 14 14 12 11 10 11 12 13 14 15 16 17 18 18 19 20 21 22 25 27 27 28 32 36 38 37 35 33 30 30 32 32 28 23 21 16 10 8 6 5 8 12 16 19 21 23 24 25 27 28 28 27 27 27 27 27 29 29 30 31 30 29 29 29 30 29 29 30 30 30 27 25 25 25 26 24 23 25 27 25
11 11 12 13 13 13 11 9 8 10 11 12 13 15 15 16 18 19 19 19 21 21 21 23 24 24 26 31 35 37 35 32 31 31 32 34 34 31 27 23 18 13 10 8 4 7 12 15 17 19 21 23 24 25 26 25 25 26 27 27 26 27 28 29 29 28 28 28 29 29 30 30 30 31 31 28 26 26 27 27 25 23 24 28 28
11 10 11 12 12 11 10 9 10 11 12 13 14 15 16 17 19 20 20 20 20 20 21 21 22 23 26 30 34 34 32 28 27 29 31 31 31 30 29 26 21 17 15 13 7 2 9 13 16 18 20 22 23 23 24 24 24 25 27 27 25 25 26 27 27 27 27 28 28 29 30 30 30 31 31 29 27 28 27 27 26 25 23 26 28
10 10 11 11 11 11 11 11 12 12 12 14 15 15 16 17 19 21 22 20 19 20 20 20 22 25 27 30 33 33 28 25 25 27 28 28 28 28 28 27 24 20 17 15 10 5 8 10 13 18 21 23 24 24 24 25 25 25 26 26 26 26 26 25 24 25 27 27 28 28 29 29 29 29 30 29 29 29 27 26 27 27 25 25 27
9 10 9 10 11 12 13 14 14 13 13 14 15 15 15 17 19 21 21 20 19 20 21 21 23 26 28 31 34 32 27 25 25 26 26 26 26 26 26 27 25 22 19 17 13 10 10 10 11 14 18 22 24 25 27 28 28 27 26 26 26 27 26 25 24 24 25 26 27 27 27 29 30 29 29 29 29 29 28 26 26 28 29 27 27
10 9 8 9 11 13 13 14 14 14 14 15 16 16 16 17 19 21 20 20 20 21 21 23 26 28 30 32 34 33 30 27 26 26 26 26 26 26 27 28 26 23 20 19 17 15 14 14 13 12 14 17 20 22 25 27 28 28 28 28 27 26 26 26 25 26 26 26 27 28 27 29 30 31 30 29 28 28 28 27 26 27 28 29 29
10 10 10 12 12 11 12 13 14 15 15 15 15 17 17 17 19 20 20 20 21 22 22 24 26 28 30 33 34 34 31 29 29 28 28 28 28 28 29 29 28 25 24 23 21 19 18 18 16 14 13 14 15 17 19 21 23 24 25 26 26 26 26 26 26 26 26 26 27 28 28 29 31 32 31 30 28 27 27 28 27 26 26 27 29
12 13 14 14 13 13 14 16 17 18 17 15 14 16 18 19 19 20 20 21 22 23 23 24 26 27 29 31 32 32 30 30 29 30 29 29 29 30 30 29 29 27 27 27 25 23 21 20 18 17 16 14 12 10 11 13 14 16 17 18 20 22 24 25 25 26 27 27 27 29 30 30 31 31 30 30 29 28 27 28 28 27 26 27 28
14 15 16 16 15 16 17 19 19 20 19 18 16 17 18 19 19 19 20 21 23 24 24 26 26 27 28 29 29 30 30 30 30 30 30 30 30 31 31 30 29 29 29 29 28 28 27 25 23 21 18 15 11 8 5 5 6 9 11 13 16 19 22 25 27 28 28 28 29 30 31 31 31 30 29 30 30 29 28 28 28 28 28 28 28
16 17 17 17 17 18 18 19 19 19 19 19 18 18 19 19 19 19 20 21 22 24 25 26 27 28 29 30 30 30 31 31 31 31 31 31 31 32 33 32 31 30 31 32 33 32 31 29 27 24 20 16 11 8 5 1 3 6 8 12 15 18 22 26 29 30 31 31 32 33 33 31 30 30 29 30 30 29 28 28 29 30 30 29 28
18 18 19 19 19 20 20 20 20 20 19 18 18 18 19 20 20 20 20 21 22 24 25 26 27 28 29 30 31 31 31 31 31 32 32 32 32 33 33 33 32 32 33 35 36 36 34 32 30 28 25 20 15 10 7 3 2 5 8 11 15 19 22 25 28 30 33 34 35 35 33 31 30 29 30 30 30 30 29 28 28 30 31 30 29
17 17 19 20 21 22 22 22 22 22 21 20 19 19 20 20 20 21 20 21 22 23 24 25 26 27 28 29 30 31 31 32 33 34 34 34 34 34 34 34 33 33 34 36 37 37 36 35 33 32 30 27 23 18 12 7 3 4 7 11 15 19 22 25 28 29 30 32 33 32 31 30 29 29 30 30 30 31 31 31 30 30 32 31 30
17 18 18 19 20 21 22 23 23 22 22 21 21 21 21 21 21 21 21 21 21 22 23 24 25 26 27 28 29 31 32 33 34 35 35 36 36 36 36 35 35 35 35 36 37 37 37 37 37 36 35 33 31 27 21 14 8 3 4 9 13 17 21 24 27 29 29 29 29 30 29 29 29 29 30 32 32 31 32 32 32 33 33 32 31
20 21 21 20 19 19 20 21 22 22 22 22 22 22 22 22 22 22 22 22 22 22 22 23 24 25 26 27 29 30 31 32 33 33 35 36 37 38 39 39 39 38 38 38 38 39 40 41 41 40 39 37 36 34 29 24 17 11 5 2 7 12 16 19 22 26 28 29 30 30 29 29 30 30 31 32 33 33 33 33 33 34 34 33 33
23 24 24 23 22 22 21 21 21 22 22 23 23 22 23 23 23 23 23 23 23 24 23 23 24 24 25 26 28 29 30 31 32 33 34 36 37 39 40 41 41 41 41 41 41 42 43 44 44 44 43 41 40 38 36 32 26 20 13 8 3 5 10 14 18 21 24 27 29 30 30 30 31 31 31 32 33 34 35 35 36 36 35 35 34
Wind_Direction
207 208 210 212 216 218 221 223 226 229 232 236 242 249 254 257 261 264 266 267 267 266 267 271 278 285 287 287 287 284 283 283 283 282 280 281 281 282 282 281 277 274 275 277 277 274 268 263 264 265 264 266 274 281 281 283 288 289 290 291 288 280 266 255 253 264 270 272 274 277 280 278 273 272 273 270 264 257 252 249 244 242 239 235 230
207 211 213 215 219 221 223 224 226 230 236 242 248 253 257 259 261 262 263 263 263 265 272 281 289 291 290 287 282 279 279 281 282 281 281 281 281 281 280 277 275 277 278 278 278 277 272 267 267 269 269 267 270 275 278 278 280 281 284 287 287 286 279 266 259 257 266 271 273 275 278 274 269 269 267 262 261 257 251 247 242 239 237 234 229
209 212 215 218 221 222 223 224 229 235 242 248 253 256 258 259 259 260 261 264 268 276 284 291 293 291 286 280 276 277 279 280 280 278 278 279 279 279 279 277 276 276 275 275 274 272 269 268 269 270 270 269 269 272 274 275 273 273 278 284 284 286 287 278 268 262 260 267 270 269 271 270 266 265 261 255 256 256 250 244 239 236 233 232 229
208 210 213 217 219 220 224 229 236 243 249 253 256 256 256 256 258 261 267 275 283 289 292 293 290 284 278 276 277 279 279 278 276 274 274 277 278 278 278 278 278 278 276 275 274 272 271 271 273 275 273 269 269 271 272 272 270 267 270 279 282 283 288 288 281 272 262 260 266 266 266 267 267 266 260 253 253 251 245 238 232 230 230 229 228
206 209 213 216 219 223 230 237 244 248 250 251 251 252 255 260 265 271 279 288 292 291 289 285 280 277 277 278 279 279 278 276 274 273 276 278 278 276 276 276 276 277 277 278 278 279 278 278 280 283 280 274 272 275 275 275 271 265 264 273 277 279 285 289 288 281 268 258 260 265 266 265 265 266 262 254 250 242 233 229 225 222 222 222 222
213 217 218 219 222 227 232 236 238 239 241 244 250 259 266 271 275 282 288 291 289 284 280 278 279 281 282 281 280 279 277 276 274 276 277 278 276 274 272 273 273 273 274 276 277 277 277 279 280 281 282 279 277 277 277 277 273 265 262 268 272 275 279 283 287 289 282 268 257 257 262 262 259 262 264 257 246 231 216 212 212 211 211 213 214
220 224 224 221 221 222 224 224 226 233 244 255 265 272 276 281 286 291 292 288 283 280 280 280 281 283 284 283 280 279 278 276 275 275 276 276 275 273 271 270 268 269 270 272 274 274 274 275 273 272 277 282 283 282 281 280 276 270 266 266 268 270 271 274 282 292 297 288 270 257 257 260 255 257 264 261 246 230 210 193 190 196 203 207 209
222 223 220 214 210 208 208 215 230 248 262 271 278 282 286 290 293 292 288 284 283 285 284 283 282 284 285 283 280 278 277 275 274 274 275 275 274 272 271 269 267 267 268 269 270 271 270 269 267 269 274 278 281 283 284 286 284 281 275 268 264 263 264 268 276 286 293 295 289 273 259 256 253 252 256 252 239 227 208 195 190 191 196 202 206
209 202 194 184 175 175 195 227 256 273 282 286 288 291 294 296 295 292 289 290 292 294 292 288 285 285 284 282 280 279 276 275 274 275 275 274 272 271 270 268 267 267 267 267 267 266 264 264 265 269 273 275 277 276 277 279 283 286 285 278 271 265 262 263 266 273 278 283 290 283 266 258 255 248 241 231 228 224 207 197 194 191 189 191 195
166 156 146 135 132 142 210 293 299 299 299 299 299 301 302 303 301 299 299 300 301 300 299 295 290 285 283 282 281 279 277 276 275 274 272 271 272 272 271 270 269 269 267 265 262 260 259 260 262 265 268 271 272 271 270 272 275 279 282 285 284 276 266 259 256 261 266 268 277 281 272 260 251 241 231 229 230 224 204 193 186 179 175 174 180
129 121 114 109 105 89 45 358 338 330 325 322 319 316 314 312 309 307 308 308 308 307 305 303 297 292 289 286 283 280 277 276 274 272 271 273 274 273 273 272 271 269 266 262 259 258 258 259 261 262 263 263 264 266 268 270 273 276 278 281 282 280 271 260 254 256 258 259 266 272 272 262 251 241 235 235 234 221 204 194 182 171 168 165 164
112 98 86 77 62 42 21 360 350 341 333 327 322 319 318 316 314 314 313 314 313 312 311 309 306 302 298 292 287 282 279 276 275 275 275 276 276 275 273 272 270 268 265 261 260 259 259 260 261 260 259 258 259 261 264 268 270 272 275 276 276 277 277 269 259 253 252 252 257 265 271 271 265 255 243 238 234 222 209 196 183 178 177 175 173
86 74 61 51 37 22 6 354 350 343 335 328 322 319 318 316 316 316 314 313 313 312 312 311 308 305 301 296 290 285 282 280 279 279 279 279 278 276 273 271 269 268 266 263 262 261 260 260 260 259 258 256 255 255 257 261 266 268 270 273 272 272 275 275 268 258 255 254 253 259 268 270 268 265 258 248 234 221 210 196 188 187 185 185 186
55 46 40 32 20 13 6 0 357 349 341 335 329 326 323 321 320 318 316 314 313 311 310 308 305 302 299 296 294 290 287 285 284 282 281 280 278 275 273 272 272 271 270 268 265 263 262 261 260 259 257 254 251 250 251 254 260 262 263 266 269 267 267 271 270 261 257 257 256 261 270 270 265 264 265 259 245 228 212 196 194 196 195 195 196
49 43 43 40 28 19 10 2 355 347 341 338 334 330 327 323 320 318 315 312 310 308 305 302 298 295 293 292 292 290 288 288 286 284 281 279 278 278 277 277 277 275 272 270 267 265 264 262 260 257 255 251 247 246 249 253 255 256 256 259 263 263 262 263 265 265 264 263 261 263 270 273 269 266 265 262 258 252 237 216 206 203 199 195 193
66 61 60 50 27 8 358 351 346 341 338 334 330 327 324 320 317 315 312 308 305 304 301 299 295 290 288 286 284 283 283 284 284 282 281 281 281 281 280 278 277 274 272 270 267 266 264 261 259 255 252 250 249 247 249 250 251 252 252 254 257 260 259 258 261 264 265 264 263 264 268 272 273 271 268 264 262 263 259 238 213 199 190 180 170
66 57 44 22 4 356 349 344 340 337 333 328 324 322 318 314 311 310 306 302 301 300 298 295 292 289 287 284 280 279 279 281 281 281 281 282 282 281 280 278 276 274 272 270 267 265 263 260 257 254 251 250 250 250 249 247 246 247 248 251 254 256 257 256 257 260 262 262 263 265 267 269 271 274 273 269 265 261 254 235 206 189 183 173 159
55 34 18 4 356 351 345 341 338 333 328 323 319 316 312 308 306 304 301 297 296 295 293 291 289 287 285 282 279 278 279 280 282 281 282 283 282 281 280 278 277 275 273 271 267 265 263 261 257 253 251 249 248 248 247 244 243 243 244 247 250 252 254 253 253 255 258 260 260 262 265 266 268 272 273 270 265 258 250 236 207 188 182 181 174
31 13 5 357 352 348 343 340 334 328 323 318 314 311 308 304 301 299 297 294 292 290 289 287 285 285 283 281 278 277 279 281 283 282 283 283 283 282 280 277 275 274 272 270 268 265 263 261 258 253 250 248 246 245 244 242 241 240 241 243 245 248 251 251 249 250 253 256 256 257 261 264 265 268 270 270 267 256 249 243 220 195 187 187 180
10 4 358 352 348 343 338 334 328 322 316 310 308 306 303 300 297 295 293 291 289 288 286 284 284 283 282 281 280 280 282 284 285 285 285 285 283 282 279 275 272 272 271 269 268 267 264 260 257 254 250 247 244 244 244 243 242 240 238 238 240 245 251 252 249 247 250 253 255 256 260 263 264 266 266 269 273 260 247 243 230 207 196 190 182
10 3 354 346 340 335 332 329 322 315 310 305 303 301 299 296 293 290 289 288 287 286 286 285 284 282 281 281 282 283 285 286 287 287 286 283 281 279 275 272 272 272 273 271 268 267 266 262 259 255 251 247 244 243 243 243 242 240 237 237 239 243 248 251 249 245 246 250 253 255 256 258 260 263 263 267 276 269 250 242 236 220 205 195 187
358 348 341 336 333 331 328 324 317 311 307 304 300 297 296 294 291 290 289 287 286 285 285 285 281 279 280 282 285 288 290 289 288 286 284 282 280 278 274 273 273 273 272 270 267 265 264 263 261 258 254 249 244 242 241 242 241 239 238 239 241 242 243 246 246 243 242 244 246 247 247 249 252 257 260 264 272 273 256 243 239 229 213 202 196
330 331 332 331 330 327 322 317 314 309 305 301 297 294 295 295 295 294 290 287 286 285 283 281 280 281 286 291 293 293 292 290 288 286 284 282 281 279 277 276 274 271 268 267 266 264 263 261 260 259 257 254 249 243 240 239 239 238 239 240 241 240 239 241 242 240 239 240 240 238 239 240 244 249 255 260 266 270 260 244 239 236 221 207 203
321 324 326 325 322 319 316 313 309 304 300 298 295 294 297 298 297 294 292 289 287 282 281 283 287 293 297 297 296 294 292 291 289 286 285 284 283 283 280 277 274 269 266 265 264 263 262 260 259 257 256 256 255 251 244 239 237 236 237 238 239 239 237 237 237 235 235 236 234 233 234 236 239 243 250 257 264 268 261 246 239 239 229 211 205
315 315 316 315 314 314 312 307 304 300 298 299 298 297 299 299 296 295 295 292 287 284 289 296 298 299 297 295 295 294 293 292 291 289 289 288 287 285 281 277 274 270 266 265 263 262 261 259 258 257 255 254 254 254 250 242 237 235 234 234 237 236 233 232 232 230 230 231 230 230 232 234 236 240 247 256 263 264 258 246 236 234 229 214 206
311 312 311 307 306 308 305 301 300 300 299 302 301 299 297 294 293 295 294 292 292 296 301 303 302 302 299 296 294 293 292 292 292 291 291 289 287 284 281 278 275 271 267 265 264 262 260 258 256 255 253 251 250 250 249 243 236 233 232 232 233 232 229 228 227 225 225 227 227 227 229 231 233 237 243 251 258 258 253 244 233 229 223 208 199
310 307 304 300 300 304 302 298 300 302 305 307 305 300 298 295 294 294 294 298 304 307 307 308 309 306 301 296 294 293 293 293 292 291 291 289 287 285 283 280 276 272 268 265 263 261 258 255 252 250 249 248 246 245 246 243 236 231 229 228 229 229 227 225 224 223 223 225 225 225 227 229 231 234 238 243 251 254 249 240 230 226 219 203 191
304 300 298 297 298 302 301 301 304 309 312 312 306 300 300 300 298 296 299 306 310 310 311 313 309 303 298 297 296 294 293 293 292 292 292 290 288 287 283 279 275 270 265 262 260 258 255 252 248 244 241 240 240 239 240 239 235 230 226 225 226 227 226 226 225 224 223 223 224 223 223 224 226 230 233 237 245 252 248 236 227 221 213 198 189
302 298 296 294 299 307 310 311 313 317 316 311 306 304 305 304 303 302 305 310 311 309 308 306 302 299 298 296 295 294 293 293 294 294 293 290 288 286 282 278 274 270 266 262 258 255 252 247 240 233 229 228 229 230 229 229 229 226 223 220 221 223 223 222 221 220 220 220 219 217 217 220 223 225 227 232 240 249 248 236 226 218 208 197 189
299 295 294 301 313 320 320 319 319 319 316 311 311 313 312 310 308 307 307 310 311 310 307 303 302 302 299 296 295 293 292 294 296 296 295 293 291 287 283 279 276 272 268 264 258 252 246 240 233 225 219 217 220 221 220 219 219 218 216 215 216 218 219 218 216 217 217 216 216 215 214 216 218 217 220 227 236 246 248 239 227 218 208 198 191
299 296 305 323 330 329 325 322 319 318 316 316 317 318 316 315 316 314 310 312 317 318 317 314 313 311 307 303 302 300 298 300 301 301 300 298 296 292 289 285 280 275 271 263 253 244 238 233 228 221 214 211 213 216 215 212 211 210 209 210 213 215 215 213 213 213 213 213 214 213 212 213 214 212 216 224 232 239 243 238 226 216 210 202 195
303 308 328 339 338 334 330 325 320 320 322 324 325 323 318 318 321 321 317 316 319 321 323 323 322 321 317 313 309 307 307 307 308 307 307 305 303 301 298 292 286 282 277 265 248 236 229 225 223 218 211 206 208 211 210 206 204 203 202 205 210 212 211 210 209 209 210 210 210 209 209 211 211 211 216 222 227 232 237 237 227 215 208 203 198
311 325 342 344 338 337 335 329 327 329 331 330 327 324 321 321 323 322 320 323 328 329 330 330 328 326 324 322 318 315 314 315 315 315 314 314 314 311 304 296 291 291 287 272 252 235 221 213 214 214 210 205 204 206 205 201 198 199 201 203 207 207 207 207 207 206 207 207 205 204 206 208 209 210 215 219 222 224 231 238 238 227 213 201 194
330 341 346 343 340 338 335 333 334 335 332 330 327 326 326 326 326 323 323 327 332 333 333 335 336 334 332 329 327 325 323 323 323 322 322 324 323 317 309 300 296 300 301 283 257 233 210 201 205 210 208 203 200 200 200 197 195 197 201 203 204 203 203 203 203 203 204 203 200 200 202 204 205 206 210 214 217 220 225 229 232 233 229 212 193
355 352 348 344 343 341 338 339 341 338 334 334 335 335 333 331 330 330 328 325 325 325 327 331 335 336 334 331 330 331 330 329 330 331 333 333 332 328 323 311 298 302 316 303 256 219 199 196 202 205 204 200 196 195 196 195 194 196 198 199 197 196 196 196 197 198 198 196 196 199 202 203 204 205 209 212 213 215 221 225 225 226 231 226 203
3 354 349 348 347 346 347 348 346 343 343 347 345 339 336 335 337 338 334 327 324 322 322 326 330 333 335 337 337 337 337 337 338 337 337 341 348 351 342 324 307 302 315 311 248 207 197 197 200 201 199 195 192 192 193 193 192 193 194 193 191 191 191 190 191 192 192 192 194 198 201 202 203 205 209 212 212 212 217 223 225 223 225 226 213
3 356 355 355 357 358 356 352 350 353 357 355 347 339 339 343 346 344 338 332 329 328 326 328 330 333 337 342 343 341 340 341 342 343 347 354 3 4 350 334 327 324 317 300 249 217 204 198 197 197 194 192 190 189 189 189 187 188 190 191 189 187 187 188 189 188 189 191 195 197 199 202 204 206 208 210 211 212 214 219 223 224 223 221 213
9 6 6 6 8 9 5 1 2 4 1 357 350 348 351 354 354 350 344 337 334 333 331 332 334 335 337 340 342 342 343 344 346 351 355 358 1 360 351 343 344 347 348 343 298 223 201 191 190 190 188 187 186 183 183 184 184 184 188 191 190 188 186 188 190 190 190 192 195 198 200 202 205 207 209 209 208 209 213 217 220 222 221 217 209
20 19 19 21 22 20 16 14 11 6 3 2 1 1 3 2 358 354 348 341 338 337 336 336 339 340 338 338 341 345 347 346 347 351 353 353 354 354 353 352 352 352 353 356 355 184 174 178 188 190 185 182 180 178 179 183 183 185 188 190 190 188 187 186 187 189 191 194 197 199 202 204 205 206 208 209 208 209 213 216 217 218 218 213 205
34 32 31 31 27 22 20 18 14 13 14 13 11 10 9 5 1 356 351 346 342 340 341 342 343 343 341 342 347 351 349 345 345 349 351 350 350 352 354 354 354 355 358 1 12 66 127 155 178 184 180 178 179 178 179 182 185 187 189 189 188 190 193 192 191 191 193 197 199 201 204 205 205 205 207 208 209 210 212 214 216 217 217 212 203
43 44 41 35 25 20 20 20 21 25 28 24 19 15 9 5 1 357 354 351 346 344 346 347 346 346 346 349 354 358 356 349 349 352 352 350 351 353 354 355 357 359 3 9 24 56 89 109 133 154 163 172 179 181 181 184 188 189 189 188 188 190 195 199 200 199 199 201 203 204 206 207 206 205 206 208 209 210 211 214 216 215 213 210 202
49 45 32 19 15 14 17 23 29 34 34 31 27 21 13 8 5 0 356 355 352 350 351 351 349 349 352 355 0 4 2 357 355 356 355 354 355 356 357 359 2 5 9 18 33 49 65 79 94 115 138 158 171 175 176 181 186 188 189 190 191 192 197 202 205 207 207 207 207 207 206 207 207 207 207 207 208 209 210 213 215 213 208 204 198
50 36 23 20 21 23 27 32 35 34 33 32 29 24 18 14 9 4 0 358 357 357 356 353 351 351 354 359 4 6 4 1 360 360 359 358 359 360 1 3 6 11 18 28 39 47 57 68 78 87 104 126 147 155 157 165 175 182 185 189 193 197 201 204 207 209 209 210 210 209 207 206 207 207 208 207 206 208 210 212 213 211 206 199 195
53 46 46 48 50 50 44 38 34 31 32 32 28 22 19 16 12 8 5 2 2 2 0 356 354 355 356 360 4 5 3 1 2 2 1 0 1 2 4 6 10 16 23 31 39 45 51 58 63 66 73 84 101 119 132 149 166 178 185 191 196 203 208 211 213 214 212 212 212 209 206 205 206 207 207 206 206 207 209 211 210 209 204 198 194
66 63 64 63 57 49 41 37 37 39 39 37 31 25 21 18 15 11 8 5 5 4 2 360 359 359 359 1 3 4 2 2 3 4 4 4 4 5 7 11 15 20 25 31 37 43 47 49 51 53 57 60 64 76 102 145 177 190 201 208 211 214 218 222 223 222 218 216 213 209 206 205 205 205 206 206 205 206 208 208 208 206 202 197 193
75 70 64 56 47 41 38 38 41 44 43 40 36 30 25 21 17 14 11 9 7 6 4 2 2 3 3 3 4 4 4 4 4 5 6 7 8 9 12 15 19 23 28 33 38 42 45 48 49 50 52 52 51 53 58 74 218 218 220 223 224 225 227 229 229 227 223 219 213 208 205 203 203 204 207 206 205 206 207 206 204 202 199 196 191
70 64 57 49 44 43 44 45 44 42 39 37 34 30 25 22 19 16 15 14 12 9 6 4 4 5 5 4 4 4 5 5 6 7 8 9 11 13 16 19 22 26 31 36 39 42 44 46 48 49 51 53 53 52 49 33 303 258 244 234 229 226 225 223 222 221 219 216 212 207 205 204 203 205 207 206 206 207 207 205 202 199 197 194 188
53 51 50 50 49 49 50 50 47 43 40 37 35 31 28 24 22 20 19 18 17 13 9 7 6 6 6 6 5 5 6 8 9 9 9 10 13 15 18 22 25 28 32 36 38 40 42 44 46 48 49 49 51 50 48 42 17 284 261 248 238 232 226 219 215 213 213 213 212 211 210 208 207 208 208 206 206 206 205 205 203 199 195 194 189
42 49 54 58 59 57 55 53 50 45 43 40 37 34 31 27 25 23 22 21 20 18 14 11 9 7 6 7 7 8 9 10 11 10 10 11 13 16 19 23 26 29 32 35 36 38 41 43 45 47 47 47 48 49 49 48 46 22 275 255 248 243 236 227 220 216 215 216 217 217 216 213 212 212 211 209 208 206 204 202 201 198 194 191 187
58 64 66 66 64 60 56 53 50 46 44 41 37 34 32 29 26 24 22 21 21 20 18 16 14 12 10 10 10 10 11 11 10 11 12 13 15 17 20 23 25 28 30 32 34 37 39 41 42 44 45 46 46 47 49 51 53 55 50 298 260 251 245 238 229 222 219 219 220 220 219 216 214 213 213 211 210 207 203 199 196 194 191 187 184
69 70 68 66 64 60 56 53 49 46 43 41 39 36 34 31 28 27 25 24 22 22 21 21 19 18 17 16 16 15 14 13 13 14 15 16 17 20 21 23 24 26 28 30 32 35 37 39 41 42 43 44 44 45 47 49 52 55 57 51 6 265 247 241 235 227 222 221 221 222 221 218 214 213 213 210 207 203 200 196 193 189 186 184 181